Location: Crescent
(42.8242°N, 73.7329°W)
Time: 19:13:56
(UTC+00:00)

Transit 4A - Pass Details

Date: 22 February 2026
Orbit: 864 x 977 km, 66.8° (Epoch: 10 March)

Event Time Altitude Azimuth Distance (km) Brightness Sun altitude
Rises 15:07:56 0° 334° (NNW) 3,602 10.4 30.4°
Reaches altitude 10° 15:10:49 10° 345° (NNW) 2,673 9.9 30.7°
Maximum altitude 15:16:13 30° 45° (NE) 1,660 9.4 31.3°
Drops below altitude 10° 15:21:42 10° 105° (ESE) 2,712 11.1 31.8°
Sets 15:24:38 0° 116° (ESE) 3,664 11.8 32.1°
